Wind_Speed
61 53 46 39 31 26 28 29 33 41 50 47 44 42 31 27 23 28 32 25 30 30 29 29 28 32 29 28 24 29 28 26 25 24 25 27 28 31 31 32 34 35 35
55 48 42 29 24 23 22 19 36 43 43 41 45 42 35 32 30 26 26 25 27 29 31 30 33 36 31 24 22 22 26 28 28 27 29 28 29 31 29 29 32 32 31
52 44 30 22 22 21 19 21 33 50 48 44 41 44 44 30 32 39 29 29 29 29 26 28 34 31 28 22 24 27 25 24 29 30 30 28 27 27 27 28 30 30 31
45 31 24 24 25 17 18 25 33 50 40 38 43 44 45 32 33 24 28 30 31 30 31 32 34 36 33 33 27 26 26 23 23 24 28 29 29 29 28 27 28 27 27
27 14 19 27 25 22 23 29 37 47 34 32 47 47 47 42 35 30 28 31 31 30 35 34 32 31 30 29 28 30 29 26 27 26 23 27 31 29 22 24 27 28 29
3 14 22 24 27 29 25 32 33 45 49 26 37 50 43 44 43 41 26 27 32 35 37 37 33 31 31 28 29 26 26 26 24 24 26 25 26 23 21 21 22 26 28
8 11 23 32 36 36 30 35 32 40 45 43 46 47 42 33 30 29 40 34 38 39 37 33 34 34 35 35 36 31 31 30 28 25 24 25 29 30 29 27 25 26 28
10 16 32 41 42 35 35 41 44 32 34 38 39 37 37 28 33 31 27 33 34 34 32 35 40 40 39 36 34 33 30 30 31 32 33 32 31 33 31 28 28 27 30
16 29 43 46 39 37 31 41 50 42 32 31 37 38 39 31 31 29 36 37 34 35 37 40 35 31 30 31 32 34 34 34 33 34 36 34 38 35 34 35 34 32 28
17 39 44 36 39 35 35 39 40 48 42 47 40 44 47 40 39 37 36 34 34 36 38 38 38 43 38 32 36 34 33 32 36 29 32 34 34 28 25 25 26 27 26
33 42 42 37 37 34 43 43 42 47 44 41 45 44 49 39 39 42 42 44 40 39 38 36 37 40 39 35 33 35 28 32 31 30 29 25 22 25 28 31 32 34 37
38 44 43 42 38 32 40 33 47 45 47 50 46 51 51 44 39 36 43 37 34 32 40 40 40 44 35 34 37 37 31 34 30 28 30 30 32 33 33 36 38 39 40
46 42 44 45 42 41 33 30 47 45 49 43 42 47 54 54 47 39 40 36 34 37 37 40 41 42 35 37 43 40 37 40 32 31 31 35 39 37 41 41 46 46 48
54 41 47 42 40 40 43 38 44 49 43 48 42 48 44 44 45 41 49 44 48 45 42 37 43 44 39 41 49 46 42 37 43 42 40 41 44 47 48 52 55 56 55
52 51 51 45 41 42 52 45 41 48 42 48 45 38 45 44 48 56 36 42 47 50 52 48 49 45 47 47 42 41 43 42 43 42 45 50 54 58 59 61 62 63 65
55 54 52 53 50 47 46 53 45 41 50 42 53 48 59 52 49 52 46 56 58 46 39 42 42 43 43 46 42 44 45 47 50 54 56 59 61 62 64 65 68 68 72
47 56 62 55 60 55 52 56 61 51 48 55 50 56 57 58 56 57 55 51 57 58 58 54 52 51 51 53 55 57 58 59 61 62 64 62 64 67 73 72 74 74 71
40 42 64 66 60 60 60 61 66 65 58 51 58 57 60 59 61 55 60 64 61 58 62 69 71 69 66 67 66 68 70 70 68 72 73 74 75 75 76 82 73 70 56
42 45 47 61 62 69 62 62 70 76 72 62 61 66 66 65 64 63 65 63 65 65 65 65 62 67 70 75 74 76 78 82 82 83 82 83 86 83 81 74 63 57 55
49 50 50 53 58 64 67 65 62 65 74 77 71 64 70 75 73 71 69 65 67 66 70 73 71 71 69 73 71 73 78 76 81 82 83 86 82 76 71 66 60 56 57
49 54 55 55 56 59 65 71 69 70 65 66 72 77 75 76 80 82 77 73 73 75 72 73 77 79 76 77 83 85 84 81 79 78 84 80 75 71 66 62 58 58 59
43 48 57 60 59 61 62 68 75 73 75 75 71 71 74 75 82 82 82 84 79 77 81 80 79 77 80 80 83 82 79 78 80 78 77 76 75 67 64 61 60 61 62
53 49 50 56 65 64 64 68 70 76 78 78 78 79 79 77 76 78 80 81 82 81 80 78 80 81 79 82 83 78 79 77 75 75 75 73 69 65 63 62 63 64 66
59 59 54 54 57 64 70 68 72 75 76 78 78 80 84 82 78 81 80 80 82 83 84 82 83 82 82 78 76 74 72 72 71 72 72 71 70 68 68 67 69 70 70
64 65 64 62 59 62 63 70 74 73 77 82 81 80 82 82 81 81 81 80 80 80 79 80 79 80 79 77 75 73 73 73 75 75 75 76 74 73 73 75 75 76 76
72 70 69 69 68 66 64 67 69 74 77 79 82 86 86 86 86 85 83 82 80 78 77 77 78 79 77 75 74 75 74 73 72 72 74 75 77 78 79 79 78 78 79
Wind_Direction
300 297 291 285 271 249 234 222 202 191 195 198 207 221 212 217 212 228 228 232 233 230 234 227 236 215 213 209 214 216 220 214 212 213 219 222 226 233 233 235 238 242 241
301 296 290 271 249 232 228 206 196 178 181 207 209 210 200 211 226 225 235 229 226 231 226 225 227 213 214 205 204 212 219 223 224 226 224 225 228 233 233 233 235 236 239
298 291 271 239 220 212 209 182 189 181 180 191 203 206 202 221 228 235 241 233 231 228 225 221 214 214 220 214 213 214 223 225 229 228 230 231 234 236 235 234 235 235 237
296 276 242 204 195 178 174 166 178 185 185 187 194 203 202 203 205 217 236 231 225 230 239 234 226 233 230 234 228 230 229 232 234 236 237 236 236 238 240 241 244 242 241
301 265 199 195 190 169 160 164 157 167 167 201 207 202 208 200 198 212 224 230 231 228 229 229 228 234 233 222 233 230 231 234 242 237 240 245 241 241 244 250 249 247 245
78 163 186 187 173 160 165 160 158 171 180 200 206 207 211 213 209 214 224 229 225 230 233 240 237 226 211 219 216 225 225 232 241 241 238 238 233 226 250 249 249 247 247
177 176 172 166 163 155 146 153 188 177 184 185 215 214 208 211 215 228 232 241 222 226 229 230 232 239 230 233 239 238 240 243 240 244 233 233 230 235 245 250 247 251 248
202 185 168 156 151 156 161 162 177 187 187 189 197 195 193 208 221 227 229 229 233 238 229 237 235 234 235 239 241 239 245 248 251 250 243 238 235 241 244 247 251 254 250
214 181 163 155 159 160 170 164 181 194 196 210 207 211 196 214 207 212 216 220 232 236 233 231 233 242 241 240 244 247 251 252 251 243 237 243 245 249 248 254 257 256 251
193 178 166 162 168 166 176 173 180 195 201 205 213 220 204 204 223 220 235 232 222 224 227 227 240 243 249 253 256 249 249 241 246 241 252 249 244 252 248 253 253 259 268
174 168 167 167 175 182 187 191 196 195 201 210 219 217 208 219 229 220 230 236 233 238 243 244 251 247 246 258 246 240 252 237 248 249 244 239 244 260 259 266 260 268 266
182 180 180 187 187 199 192 207 206 200 211 217 218 216 215 216 224 225 222 224 237 231 228 236 245 249 243 245 253 247 254 252 246 262 249 244 269 277 281 282 284 281 283
189 197 196 197 202 210 206 220 209 213 215 216 213 215 215 225 232 238 236 227 239 238 234 236 249 259 251 246 240 255 246 246 264 269 264 254 277 280 289 289 285 288 287
197 210 207 200 207 215 212 207 216 217 215 213 222 222 215 233 238 246 248 249 250 244 244 234 245 257 252 247 249 250 240 251 268 274 277 276 282 287 288 289 292 293 291
207 212 215 217 207 217 217 219 218 215 222 222 221 221 222 228 230 231 225 232 241 246 249 249 245 250 247 247 242 252 260 264 272 274 276 280 282 283 285 286 289 289 289
215 215 216 224 222 216 227 221 220 227 222 235 222 221 218 228 230 228 234 233 237 235 235 234 238 238 244 244 250 255 257 263 270 272 273 276 275 277 279 281 281 284 286
219 224 217 222 229 227 230 228 228 228 234 234 233 232 231 232 235 240 240 244 244 250 245 252 253 253 254 254 255 265 267 271 272 275 277 276 277 278 278 278 281 283 282
236 232 228 229 233 229 232 235 234 228 237 237 236 236 241 242 243 241 243 243 250 253 249 253 253 255 260 265 267 267 267 271 272 273 275 280 281 279 279 284 278 280 266
246 241 237 234 233 231 236 236 235 234 233 240 240 239 247 246 251 251 251 251 250 255 253 255 255 256 261 260 265 267 269 270 270 274 275 275 279 278 278 279 271 265 261
249 244 241 239 236 238 239 240 240 240 237 243 243 245 244 250 250 253 255 259 255 254 256 258 263 264 266 264 269 272 273 272 269 272 275 274 275 277 276 272 264 260 259
259 251 248 247 243 241 239 240 241 240 241 242 244 245 249 250 249 251 257 259 262 259 259 257 260 262 267 269 272 269 271 270 270 272 272 274 272 271 270 264 260 258 257
278 261 252 248 248 248 246 243 241 244 244 246 245 244 245 248 250 252 255 258 259 259 259 263 263 266 264 265 270 267 266 267 269 269 268 269 270 267 263 260 258 257 256
279 277 265 256 248 248 249 245 245 245 245 246 247 248 248 250 250 252 253 254 256 257 259 262 263 265 267 265 266 267 266 265 266 267 267 266 264 263 260 259 258 257 257
273 275 272 270 261 252 249 248 249 246 245 247 248 248 248 250 252 253 253 255 257 258 258 261 262 264 264 262 263 265 263 263 263 265 265 264 263 261 260 261 262 262 261
270 270 269 270 268 263 259 252 250 249 249 248 247 248 249 250 252 253 255 256 257 256 257 259 261 261 260 260 260 262 263 264 263 264 265 263 262 262 261 262 263 263 262
266 264 267 264 266 265 264 260 257 251 250 249 249 248 249 249 250 251 252 253 254 255 255 256 258 258 259 260 261 261 261 261 263 264 265 264 264 263 262 261 261 261 262
Height
10719 10713 10708 10706 10705 10707 10712 10720 10730 10740 10751 10759 10766 10773 10779 10781 10784 10787 10790 10793 10796 10799 10802 10804 10806 10809 10808 10808 10811 10814 10816 10818 10820 10820 10822 10823 10825 10827 10830 10832 10835 10836 10838
10706 10702 10699 10698 10699 10703 10708 10716 10725 10734 10745 10756 10762 10770 10776 10778 10780 10783 10785 10788 10791 10793 10797 10799 10802 10804 10805 10805 10808 10810 10812 10814 10815 10816 10818 10819 10821 10824 10825 10827 10829 10831 10832
10695 10691 10689 10691 10696 10700 10706 10712 10722 10729 10739 10749 10758 10764 10772 10776 10777 10778 10781 10784 10787 10789 10792 10795 10798 10799 10800 10802 10804 10806 10808 10809 10810 10812 10814 10816 10818 10820 10821 10822 10824 10824 10826
10684 10679 10682 10687 10694 10699 10705 10713 10719 10729 10740 10745 10751 10758 10764 10769 10771 10775 10776 10778 10782 10785 10788 10790 10792 10794 10796 10798 10800 10801 10803 10804 10806 10807 10809 10812 10814 10815 10817 10819 10820 10821 10822
10676 10673 10680 10686 10692 10700 10706 10713 10717 10725 10733 10741 10746 10751 10758 10762 10765 10769 10770 10773 10778 10781 10783 10786 10788 10790 10791 10793 10795 10796 10798 10800 10802 10803 10806 10807 10808 10809 10812 10814 10815 10816 10817
10679 10680 10683 10687 10693 10700 10709 10717 10720 10721 10724 10736 10742 10748 10754 10758 10761 10764 10767 10769 10773 10775 10778 10781 10782 10784 10785 10787 10789 10791 10793 10795 10797 10799 10801 10802 10803 10805 10806 10808 10809 10811 10812
10683 10682 10683 10686 10690 10697 10706 10713 10729 10724 10726 10732 10740 10745 10751 10755 10759 10758 10762 10763 10767 10770 10772 10774 10776 10779 10781 10782 10785 10786 10787 10789 10792 10794 10796 10797 10798 10800 10801 10803 10804 10804 10806
10683 10683 10683 10687 10691 10695 10699 10706 10721 10725 10728 10732 10736 10740 10746 10749 10752 10752 10755 10757 10761 10764 10767 10769 10770 10772 10774 10776 10779 10780 10781 10783 10785 10788 10790 10791 10793 10794 10795 10797 10798 10799 10801
10682 10681 10684 10689 10693 10696 10700 10703 10713 10717 10723 10730 10733 10736 10739 10742 10744 10747 10748 10751 10753 10757 10761 10762 10763 10765 10768 10770 10772 10774 10775 10777 10779 10780 10782 10784 10786 10788 10789 10790 10791 10792 10794
10681 10680 10685 10689 10692 10696 10699 10704 10708 10715 10717 10720 10724 10728 10732 10735 10739 10740 10742 10745 10747 10750 10753 10755 10759 10760 10762 10764 10765 10766 10768 10769 10772 10773 10775 10777 10779 10780 10782 10783 10785 10786 10787
10680 10682 10683 10686 10689 10690 10694 10699 10703 10707 10712 10714 10716 10719 10724 10729 10732 10735 10736 10739 10741 10743 10746 10749 10752 10753 10756 10757 10758 10760 10760 10762 10765 10766 10768 10770 10771 10774 10775 10776 10778 10779 10780
10678 10680 10680 10681 10683 10686 10689 10691 10694 10697 10699 10701 10707 10713 10718 10721 10723 10726 10728 10731 10734 10735 10739 10742 10746 10746 10747 10750 10752 10753 10754 10756 10757 10759 10761 10761 10763 10765 10766 10768 10769 10770 10770
10676 10676 10677 10678 10679 10681 10685 10687 10689 10692 10696 10700 10703 10706 10710 10714 10717 10718 10722 10723 10726 10729 10732 10734 10737 10738 10741 10743 10744 10746 10747 10748 10748 10751 10754 10754 10754 10755 10756 10758 10759 10760 10760
10673 10672 10673 10673 10676 10678 10679 10680 10684 10689 10691 10694 10698 10700 10704 10707 10709 10711 10713 10716 10719 10722 10725 10727 10729 10730 10732 10735 10736 10737 10738 10738 10740 10742 10743 10744 10743 10744 10746 10747 10747 10748 10748
10665 10666 10669 10670 10668 10672 10674 10676 10678 10681 10684 10687 10690 10693 10698 10701 10703 10706 10706 10708 10712 10714 10717 10718 10721 10723 10723 10724 10727 10728 10729 10729 10730 10731 10733 10733 10734 10734 10735 10736 10736 10736 10737
10657 10659 10660 10664 10665 10665 10668 10670 10671 10674 10678 10679 10682 10684 10688 10687 10689 10695 10697 10700 10702 10705 10708 10710 10712 10714 10715 10715 10716 10717 10718 10719 10720 10721 10722 10723 10724 10724 10725 10726 10727 10727 10726
10649 10651 10652 10654 10656 10657 10659 10660 10663 10663 10666 10669 10672 10674 10676 10679 10682 10684 10686 10690 10691 10694 10695 10697 10699 10701 10702 10703 10704 10705 10706 10707 10708 10710 10711 10711 10712 10713 10714 10714 10714 10715 10714
10642 10642 10646 10646 10646 10649 10650 10652 10653 10654 10654 10656 10660 10663 10667 10669 10673 10676 10678 10680 10682 10684 10687 10687 10689 10690 10691 10692 10692 10694 10695 10695 10696 10697 10698 10699 10699 10699 10700 10700 10697 10699 10698
10629 10632 10632 10633 10635 10638 10639 10641 10643 10644 10644 10646 10649 10653 10656 10659 10661 10663 10665 10668 10669 10671 10673 10675 10676 10678 10679 10680 10681 10681 10682 10682 10683 10683 10684 10685 10684 10686 10685 10684 10682 10683 10684
10614 10616 10617 10618 10620 10621 10624 10626 10629 10632 10635 10637 10640 10642 10643 10646 10648 10650 10651 10653 10656 10658 10660 10661 10662 10664 10664 10666 10667 10667 10667 10667 10668 10668 10668 10669 10669 10668 10668 10667 10667 10668 10670
10602 10603 10605 10606 10607 10608 10608 10608 10611 10614 10618 10623 10626 10629 10630 10631 10633 10634 10636 10639 10641 10644 10645 10646 10647 10649 10649 10649 10651 10653 10653 10653 10652 10651 10652 10653 10653 10653 10652 10653 10653 10654 10656
10589 10589 10590 10591 10593 10594 10595 10597 10599 10599 10602 10605 10608 10610 10610 10612 10617 10620 10623 10624 10625 10626 10627 10627 10630 10632 10635 10636 10636 10636 10636 10635 10634 10634 10634 10635 10636 10636 10637 10638 10639 10640 10641
10574 10574 10575 10576 10576 10578 10578 10582 10582 10584 10585 10586 10586 10589 10594 10598 10600 10602 10604 10605 10606 10607 10609 10610 10612 10614 10616 10617 10618 10617 10617 10618 10616 10616 10617 10616 10618 10619 10621 10623 10624 10625 10626
10559 10559 10559 10559 10559 10561 10561 10563 10564 10567 10569 10570 10571 10573 10576 10578 10580 10582 10584 10585 10587 10589 10591 10592 10594 10595 10597 10598 10598 10598 10599 10599 10599 10598 10598 10598 10600 10601 10604 10606 10607 10608 10609
10538 10540 10541 10541 10541 10542 10541 10543 10545 10548 10550 10552 10553 10556 10557 10557 10559 10561 10563 10566 10568 10570 10571 10572 10573 10575 10577 10578 10579 10580 10581 10581 10581 10581 10580 10581 10582 10582 10585 10587 10589 10590 10591
10517 10518 10520 10521 10521 10522 10522 10523 10523 10525 10528 10529 10533 10536 10537 10539 10540 10541 10543 10545 10547 10549 10550 10552 10554 10556 10557 10558 10559 10561 10561 10562 10562 10562 10562 10563 10561 10562 10565 10568 10570 10571 10572